星链-11196 (STARLINK-11196)

导读

STARLINK-11196是美国于2024年8月10日发射的星链卫星,隶属于SpaceX公司的星链星座项目。星链项目旨在构建全球卫星互联网通信系统,为全球偏远地区、海洋等区域提供高速低延迟互联网接入服务。作为星链组网卫星之一,它会承担相关通信信号转发任务,帮助扩大星链系统的全球覆盖范围,推进全球网络互联覆盖。

Basic Information
目录编号:
60408
目录名称:
STARLINK-11196
国际标识:
2024-141L
轨道中心:
EARTH
卫星名称:
星链-11196 (STARLINK-11196)
卫星全名:
星链-11196 (STARLINK-11196)
卫星状态:
在轨 (已飞行717 天)
发射日期:
2024-08-10 UTC
国别 :
美国 (US)
星等 :
--
Orbit Information
数据来源 国际轨道数据
星历时间: 2026-07-27T08:13:13+0800
1天前
查看轨道信息
半长轴: 6737.969km
偏心率: 0.0000775
轨道倾角: 53.158°
近地点辐角 78.067°
升交点赤经 119.536°
平近点角 282.044°
近地点: 359.309km
远地点: 360.355km
周期: 91.739分钟
每日圈数: 15.696734
Detailed Information
卫星平台:
Starlink v2.0 mini
运营商:
太空探索技术公司
运营商所在国:
美国
制造商(研发单位):
太空探索技术公司
制造商所在国:
美国
使用方式:
暂无
Satellite Introduction
星链(Starlink)计划是由太空探索技术公司(SpaceX)提出的一个巨型低轨卫星互联网星座项目,计划在2019年至2024年间在太空搭建由约1.2万颗卫星组成的“星链”网络,其中1584颗将部署在地球上空550千米处的近地轨道,并从2020年开始工作。该卫星仍在工作。
2D Orbit Map
3D Orbit Map
Orbit Altitude Analysis Chart
Orbit Inclination Analysis Chart
Orbit Comprehensive Analysis Chart
View Comprehensive Chart